Location: Kerguer�zec
(48.4509°N, 4.7600°W)
Time: 23:34:06
(UTC+00:00)

Cosmos 2221 - Pass Details

Date: 09 April 2020
Orbit: 592 x 617 km, 82.5° (Epoch: 24 May)

Event Time Altitude Azimuth Distance (km) Brightness Sun altitude
Exits shadow 23:23:27 29° 339° (NNW) 1,143 4.4 -32.1°
Drops below altitude 10° 23:25:51 10° 358° (N) 1,981 5.9 -32.3°
Sets 23:28:10 0° 5° (N) 2,887 6.9 -32.4°
